Zurück zum Katalog

STARLINK-31926

AktivKommunikationVLEO
NORAD 59879·PAYLOAD·🇺🇸 United States

Gestartet May 24, 2024 von Cape Canaveral Space Force Station

Loading…

Nächste Überflüge (nächste 24 Stunden)

TLE

AktuellSource: CelesTrak SupGP

Epoche: Sep 15, 2026, 03:16 UTC

1 59879C 24098X   26258.13659722 -.00007513  00000+0 -27225-3 0  2585
2 59879  43.0026 277.5985 0001525 272.3318 178.5009 15.27567378    19

Verfolge STARLINK-31926 in Echtzeit mit AllMySat

Download on the App Store